Home   Weather   Limassol   Past weeks

Flag for Cyprus Past Weather in Limassol, Cyprus — Yesterday and Last 2 Weeks

Now
64 °F

Clear.


Feels Like: 64 °F
Forecast: 54 / 84 °F
Wind: 1 mph from South

Location: Akrotiri

Current Time: Sep 25, 2016 at 5:16:39 AM

Latest Report: Sep 25, 2016 at 4:50 AM


Visibility: 10 mi

Pressure: 29.89 "Hg

Humidity: 43%

Dew Point: 41 °F

Location of LimassolLocation

Past Weather in Limassol — Graph

°F

Limassol Temperature Yesterday

Maximum temperature yesterday: 82 °F (at 11:50 AM)
Minimum temperature yesterday: 68 °F (at 4:50 AM)
Average temperature yesterday: 75 °F

High & Low Weather Summary for the Past Weeks

 TemperatureHumidityPressure
High90 °F (Sep 11, 10:50 AM)94% (Sep 11, 12:50 AM)30.01 "Hg (Sep 11, 12:50 AM)
Low66 °F (Sep 25, 2:50 AM)26% (Sep 17, 10:50 PM)29.77 "Hg (Sep 10, 5:50 PM)
Average79 °F63%29.85 "Hg
* Reported Sep 10 3:50 AM — Sep 25 3:50 AM, Limassol, Weather by CustomWeather, © 2016

Note: Actual official high and low records may vary slightly from our data, if they occured in-between our weather recording intervals... More about our weather records

Advertising

Limassol Weather History for the Previous 24 Hours

Scroll right to see more
 ConditionsComfort  
Time TempWeatherWind HumidityBarometerVisibility
3:50 AM
Sun, Sep 25
66 °FClear.6 mph37%29.89 "Hg10 mi
2:50 AM66 °FClear.7 mph37%29.89 "Hg10 mi
1:50 AM68 °FClear.5 mph33%29.92 "Hg10 mi
12:50 AM68 °FClear.3 mph35%29.92 "Hg10 mi
11:50 PM
Sat, Sep 24
68 °FClear.N/A43%29.92 "Hg10 mi
10:50 PM72 °FClear.2 mph44%29.95 "Hg10 mi
9:50 PM72 °FClear.3 mph57%29.95 "Hg10 mi
8:50 PM73 °FClear.2 mph57%29.95 "Hg10 mi
7:50 PM75 °FPassing clouds.5 mph50%29.95 "HgN/A
6:50 PM77 °FPassing clouds.N/A44%29.95 "HgN/A
5:50 PM79 °FPassing clouds.6 mph45%29.95 "HgN/A
4:50 PM81 °FPassing clouds.10 mph42%29.95 "HgN/A
3:50 PM81 °FPassing clouds.14 mph39%29.92 "HgN/A
2:50 PM81 °FPassing clouds.17 mph39%29.95 "HgN/A
1:50 PM82 °FPassing clouds.18 mph35%29.95 "HgN/A
12:50 PM82 °FPassing clouds.22 mph35%29.98 "HgN/A
11:50 AM82 °FPassing clouds.21 mph35%29.98 "HgN/A
10:50 AM81 °FPassing clouds.22 mph34%30.01 "HgN/A
8:50 AM79 °FSunny.14 mph32%29.98 "Hg10 mi
7:50 AM72 °FSunny.6 mph41%29.98 "Hg10 mi
6:50 AM68 °FSunny.7 mph49%29.95 "Hg10 mi
5:50 AM68 °FPassing clouds.7 mph49%29.95 "HgN/A
Weather by CustomWeather, © 2016

See weather overviewHow to use our weather pages